Location: Newark
(45.5000°N, 11.4167°E)
Time: 06:19:54
(UTC+00:00)

A-11 Canister half - Pass Details

Date: 23 August 2019
Orbit: 1513 x 1686 km, 47.2° (Epoch: 19 September)

Event Time Altitude Azimuth Distance (km) Brightness Sun altitude
Rises 00:16:43 0° 293° (WNW) 4,834 11.7 -31.3°
Reaches altitude 10° 00:20:13 10° 284° (WNW) 3,870 11.0 -31.2°
Enters shadow 00:24:14 23° 265° (W) 2,976 10.2 -30.9°
Maximum altitude 00:28:32 32° 226° (SW) 2,576 - -30.7°
Drops below altitude 10° 00:37:02 10° 169° (SSE) 3,936 - -30.1°
Sets 00:40:39 0° 159° (SSE) 4,927 - -29.9°
